[[{"header":{"parameterUnit":"m.s-1","parameterCategory":1,"la1":30.2991,"la2":30.254,"lo1":-89.0895,"lo2":-89.0444,"dy":0.0017,"dx":0.0017,"nx":28,"ny":28,"refTime":"2025-08-29T03:00:00:Z","depth":0,"parameterNumber":2,"parameterNumberName":"U-component_of_WINDS"},"data":[0,0,0,0,0,0,0,0,0,0,0,0,0,0,0,0,0,0,0,0,0,0,0,0,0,0,0,0,0,0,0,0,0,0,0,0,0,0,0,0,0,0,0,0,0,0,0,0,0,0,0,0,0,0,0,0,0,0,2.4085,2.4085,0,2.4091,2.4091,2.4091,2.4044,2.4042,2.4041,2.404,2.4046,2.4047,2.4048,0,0,0,0,0,0,0,0,0,0,0,0,0,2.4032,2.4033,2.4085,2.4085,2.4085,2.4091,2.4091,2.4091,2.4044,2.4042,2.4041,2.4039,2.4045,2.4047,2.4048,0,0,0,0,0,0,0,0,0,0,0,0,0,2.4048,2.4033,2.4085,2.4062,2.406,2.4091,2.4091,2.4091,2.4044,2.4042,2.404,2.4038,2.4045,2.4047,2.4049,2.4101,0,0,2.4055,2.4056,0,0,0,0,0,0,0,0,2.4047,2.405,2.4066,2.4064,2.4062,2.4065,2.4074,2.4095,2.4045,2.405,2.404,2.4038,2.4053,2.4055,2.406,2.4102,2.4102,2.4055,2.4056,2.4057,2.4058,0,0,0,0,0,0,0,2.4046,2.4049,2.4087,2.4066,2.4064,2.4052,2.4052,2.4078,2.4063,2.405,2.4046,2.4048,2.4052,2.4058,2.406,2.4102,2.4055,2.4057,2.4058,2.4059,2.4185,2.4187,0,0,0,0,0,0,2.4048,2.4049,2.4087,2.4088,2.4049,2.4054,2.4054,2.4066,2.4063,2.406,2.4049,2.4046,2.4056,2.4058,2.406,2.4119,2.4057,2.4059,2.406,2.4183,2.4186,2.4188,0,0,0,0,0,0,2.4047,2.4052,2.4087,2.4067,2.4071,2.4057,2.407,2.4067,2.4073,2.4062,2.4059,2.4059,2.4054,2.4057,2.4091,2.4119,2.406,2.4062,2.4181,2.4184,2.4187,2.424,0,0,0,0,0,0,2.4046,2.4052,2.4072,2.4068,2.4072,2.4118,2.4072,2.4068,2.4077,2.4072,2.407,2.4068,2.4053,2.4088,2.4093,2.4121,2.4064,2.4178,2.4182,2.4186,2.4236,2.4244,2.4252,0,0,0,0,0,2.4044,2.4087,2.4073,2.4078,2.4097,2.412,2.4122,2.4104,2.4079,2.4099,2.4092,2.4068,2.4116,2.4092,2.4097,2.4126,2.4176,2.4181,2.4186,2.4232,2.4243,2.4252,0,0,0,0,0,0,2.4093,2.4086,2.407,2.4113,2.4118,2.4112,2.4136,2.4116,2.4128,2.4122,2.41,2.41,2.4137,2.4135,2.4109,2.4176,2.4142,2.4148,2.4175,2.4185,2.4194,2.4192,2.4065,0,0,0,0,0,2.411,2.4129,2.4122,2.416,2.4163,2.4149,2.4159,2.4145,2.4148,2.4149,2.4145,2.4149,2.4165,2.4176,2.419,2.4236,2.4234,2.4259,2.4267,2.4274,2.4278,2.4301,2.4311,2.4203,2.4203,2.4203,0,0,2.4142,2.4141,2.4154,2.417,2.4171,2.4191,2.4151,2.4174,2.4189,2.4153,2.4184,2.4181,2.4184,2.4224,2.4242,2.4224,2.4308,2.428,2.4286,2.4286,2.4307,2.4317,2.4326,2.4207,2.4206,2.4206,0,0,2.4212,2.4214,2.4245,2.4248,2.4251,2.4241,2.4249,2.4247,2.4243,2.4275,2.4248,2.4265,2.4293,2.4296,2.4301,2.4373,2.435,2.4379,2.442,2.4443,2.4451,2.4459,2.4482,2.4491,2.4384,2.4384,2.4384,0,2.4252,2.4281,2.4263,2.4288,2.4295,2.4265,2.4295,2.4299,2.4307,2.4312,2.4293,2.4327,2.4327,2.4366,2.4384,2.439,2.4397,2.4377,2.4452,2.4459,2.4465,2.4487,2.4496,2.4387,2.4387,2.4386,2.4386,0,2.4329,2.435,2.4375,2.4383,2.4393,2.4421,2.4407,2.442,2.4406,2.4398,2.443,2.443,2.4442,2.4451,2.4438,2.4489,2.4477,2.4456,2.442,2.4479,2.4499,2.4507,2.4391,2.439,2.4389,2.4389,0,0,2.4426,2.4425,2.4434,2.4437,2.4439,2.4455,2.4482,2.4494,2.4504,2.4512,2.4532,2.4558,2.4537,2.4543,2.453,2.455,2.4604,2.4525,2.4525,2.4537,2.4658,2.4671,2.4681,2.4591,2.4593,2.4594,2.4656,0,2.4492,2.4536,2.4522,2.4567,2.4585,2.4557,2.458,2.4584,2.4579,2.4593,2.4587,2.4604,2.4578,2.4581,2.46,2.4594,2.4627,2.4589,2.4608,2.4609,2.4604,2.4692,2.4707,2.4766,2.4664,2.4666,2.4667,0,2.4573,2.4583,2.463,2.4628,2.4635,2.4656,2.4666,2.4681,2.4685,2.4679,2.4687,2.4669,2.4695,2.4662,2.4696,2.467,2.4678,2.4676,2.4678,2.4676,2.4639,2.469,2.4785,2.4792,2.4679,2.4678,2.4677,0,2.4635,2.4661,2.4692,2.4696,2.4696,2.4711,2.4711,2.4713,2.4721,2.4731,2.4736,2.4748,2.4754,2.4764,2.4751,2.4729,2.4786,2.4753,2.4781,2.4781,2.4791,2.479,2.4885,2.4802,2.4801,2.4801,2.4801,0,2.4708,2.4737,2.472,2.4739,2.477,2.4754,2.4786,2.4783,2.4785,2.4802,2.4781,2.4797,2.478,2.4795,2.4785,2.4813,2.4817,2.4813,2.4809,2.4812,2.4813,2.4814,2.4808,2.4804,2.4803,2.4803,2.4802,0,2.4781,2.4772,2.4803,2.4801,2.4801,2.4824,2.4821,2.4838,2.4833,2.4855,2.4859,2.4849,2.4866,2.4854,2.4871,2.4864,2.4901,2.4893,2.4899,2.4896,2.4923,2.492,2.502,2.5031,2.4944,2.4945,2.4945,0,2.4826,2.4847,2.4848,2.4858,2.486,2.4877,2.4885,2.4871,2.488,2.4886,2.4902,2.4917,2.4928,2.4956,2.495,2.4962,2.4953,2.4987,2.4954,2.4957,2.495,2.4947,2.4948,2.4993,2.4994,2.4995,2.4995,0,2.4906,2.49,2.4913,2.4925,2.4936,2.4945,2.4951,2.4961,2.4946,2.4958,2.4975,2.4984,2.5001,2.5015,2.5026,2.5026,2.5008,2.5006,2.5013,2.5015,2.5016,2.5013,2.4913,2.5003,2.5002,2.5002,2.5001,2.5001,2.4964,2.4981,2.4984,2.4999,2.5003,2.501,2.5025,2.5022,2.5036,2.5048,2.5039,2.5059,2.5062,2.5074,2.5077,2.5092,2.5077,2.5088,2.509,2.5091,2.5094,2.5017,2.5094,2.5094,2.5093,2.5093,2.5093,0,2.5039,2.504,2.5055,2.5065,2.5077,2.5061,2.5068,2.5079,2.5096,2.5101,2.5112,2.5131,2.5145,2.5141,2.5154,2.5166,2.5158,2.517,2.5167,2.5167,2.5107,2.5099,2.5176,2.5176,2.5176,2.5176,2.5176,2.5176,2.508,2.5108,2.5103,2.5132,2.5133,2.5152,2.5157,2.5163,2.5167,2.5189,2.52,2.5198,2.5199,2.5212,2.5224,2.5222,2.5227,2.5241,2.5236,2.518,2.5171,2.5163,2.5155,2.5243,2.5243,2.5294,2.5294,2.5295]},{"header":{"parameterUnit":"m.s-1","parameterCategory":1,"la1":30.2991,"la2":30.254,"lo1":-89.0895,"lo2":-89.0444,"dy":0.0017,"dx":0.0017,"nx":28,"ny":28,"refTime":"2025-08-29T03:00:00:Z","depth":0,"parameterNumber":3,"parameterNumberName":"V-component_of_WINDS"},"data":[0,0,0,0,0,0,0,0,0,0,0,0,0,0,0,0,0,0,0,0,0,0,0,0,0,0,0,0,0,0,0,0,0,0,0,0,0,0,0,0,0,0,0,0,0,0,0,0,0,0,0,0,0,0,0,0,0,0,0.859,0.859,0,0.858,0.858,0.8579,0.85,0.8498,0.8496,0.8494,0.8485,0.8486,0.8488,0,0,0,0,0,0,0,0,0,0,0,0,0,0.8542,0.8543,0.859,0.859,0.859,0.858,0.858,0.8579,0.85,0.8497,0.8495,0.8493,0.8484,0.8486,0.8488,0,0,0,0,0,0,0,0,0,0,0,0,0,0.8551,0.8544,0.859,0.8549,0.8545,0.858,0.858,0.8579,0.85,0.8497,0.8494,0.8492,0.8484,0.8486,0.8488,0.8562,0,0,0.8496,0.8497,0,0,0,0,0,0,0,0,0.855,0.8552,0.8555,0.8552,0.8548,0.8538,0.8559,0.8574,0.8501,0.8517,0.8494,0.849,0.8505,0.8505,0.851,0.8562,0.8561,0.8496,0.8497,0.8498,0.8499,0,0,0,0,0,0,0,0.855,0.8552,0.8586,0.8555,0.8551,0.8531,0.8529,0.8562,0.8528,0.8516,0.851,0.851,0.8502,0.8508,0.8509,0.8561,0.8496,0.8498,0.8499,0.85,0.8672,0.8675,0,0,0,0,0,0,0.8555,0.8552,0.8586,0.8586,0.8542,0.8535,0.8532,0.8544,0.8527,0.8522,0.8512,0.8506,0.8505,0.8506,0.8509,0.8592,0.8498,0.8501,0.8502,0.8669,0.8672,0.8676,0,0,0,0,0,0,0.8554,0.8558,0.8587,0.8567,0.857,0.8538,0.8552,0.8545,0.8551,0.8525,0.8518,0.8524,0.8503,0.8505,0.8549,0.859,0.8502,0.8504,0.8665,0.867,0.8674,0.8761,0,0,0,0,0,0,0.8553,0.8559,0.8586,0.8569,0.8571,0.8627,0.8555,0.8547,0.8555,0.8547,0.8534,0.8529,0.8501,0.8546,0.8551,0.8592,0.8506,0.8661,0.8667,0.8673,0.8754,0.8768,0.8779,0,0,0,0,0,0.8551,0.8612,0.8588,0.8592,0.8604,0.863,0.8631,0.8596,0.8559,0.8586,0.8569,0.8529,0.8586,0.8551,0.8557,0.8599,0.8658,0.8665,0.8672,0.8748,0.8765,0.8779,0,0,0,0,0,0,0.8635,0.8608,0.8582,0.8638,0.8637,0.8616,0.8649,0.8616,0.8625,0.8617,0.8575,0.8573,0.8623,0.8616,0.8577,0.8669,0.8615,0.8624,0.8671,0.8687,0.8699,0.8699,0.8508,0,0,0,0,0,0.866,0.8682,0.8658,0.871,0.8711,0.8681,0.869,0.8664,0.8661,0.866,0.8646,0.8646,0.8663,0.8675,0.869,0.8754,0.8749,0.8785,0.8798,0.8809,0.8816,0.8847,0.8863,0.8699,0.8699,0.8699,0,0,0.8712,0.87,0.8717,0.8727,0.8722,0.8746,0.868,0.8709,0.8726,0.8664,0.8704,0.8695,0.8691,0.8744,0.8767,0.874,0.8861,0.8818,0.8827,0.8827,0.8856,0.8872,0.8886,0.8703,0.8703,0.8702,0,0,0.8817,0.8812,0.8853,0.885,0.8844,0.8824,0.8834,0.8819,0.881,0.8849,0.8803,0.8823,0.8855,0.8853,0.8856,0.8962,0.8926,0.8969,0.9034,0.9066,0.9079,0.909,0.9125,0.9139,0.8976,0.8977,0.8977,0,0.8882,0.8915,0.8879,0.8909,0.8915,0.886,0.8902,0.8901,0.8901,0.8906,0.8875,0.8912,0.8906,0.8958,0.8984,0.8989,0.8999,0.8968,0.908,0.9091,0.9101,0.9134,0.9148,0.8982,0.8981,0.898,0.898,0,0.8994,0.9018,0.9053,0.9052,0.9062,0.9098,0.9067,0.9082,0.9055,0.9038,0.9079,0.907,0.9081,0.9092,0.9067,0.914,0.9123,0.9087,0.9032,0.9122,0.9152,0.9165,0.8989,0.8987,0.8985,0.8984,0,0,0.9149,0.9129,0.9142,0.914,0.9131,0.9149,0.9183,0.9193,0.9205,0.9208,0.9234,0.9262,0.9229,0.9233,0.9208,0.9236,0.9317,0.9196,0.9195,0.9217,0.9395,0.942,0.9435,0.9295,0.9297,0.9299,0.9395,0,0.9248,0.9303,0.9272,0.9332,0.9353,0.9302,0.9332,0.9329,0.9315,0.9331,0.9316,0.9335,0.929,0.9292,0.9318,0.9302,0.9352,0.9295,0.9318,0.9319,0.9317,0.9452,0.9478,0.9569,0.9407,0.9409,0.941,0,0.937,0.9376,0.9438,0.9423,0.9431,0.9458,0.9464,0.9481,0.9477,0.9465,0.947,0.9438,0.947,0.9418,0.9462,0.9423,0.9431,0.9425,0.9428,0.9426,0.9368,0.9451,0.9597,0.961,0.9429,0.9428,0.9426,0,0.9473,0.9498,0.9537,0.9538,0.9523,0.9543,0.9538,0.9531,0.9539,0.9545,0.955,0.9561,0.9566,0.9575,0.9547,0.9512,0.9594,0.954,0.9584,0.9584,0.9601,0.9599,0.9747,0.9611,0.9611,0.9611,0.961,0,0.9585,0.9624,0.9583,0.9607,0.965,0.9614,0.9657,0.9647,0.9641,0.9663,0.9621,0.9642,0.9605,0.9623,0.9602,0.964,0.9644,0.9634,0.9627,0.9636,0.9637,0.9638,0.963,0.9614,0.9613,0.9613,0.9612,0,0.9706,0.968,0.972,0.9702,0.9699,0.9731,0.9716,0.9737,0.9721,0.9748,0.9753,0.9727,0.9745,0.9719,0.9735,0.9721,0.9773,0.9758,0.9773,0.9768,0.9812,0.9807,0.9964,0.9982,0.9837,0.9838,0.9839,0,0.9777,0.9805,0.9791,0.9802,0.9799,0.9817,0.9825,0.9792,0.9802,0.98,0.9822,0.9837,0.9846,0.9878,0.9861,0.9873,0.9857,0.9911,0.9858,0.9866,0.9855,0.9852,0.9854,0.9921,0.9922,0.9924,0.9925,0,0.9905,0.9891,0.9903,0.9912,0.9922,0.9927,0.9929,0.9941,0.9906,0.992,0.9937,0.9945,0.9961,0.9976,0.9984,0.9979,0.9946,0.9942,0.9952,0.996,0.9967,0.9961,0.98,0.9938,0.9937,0.9936,0.9935,0.9935,1.0001,1.0024,1.0017,1.0032,1.003,1.0033,1.0052,1.0038,1.0052,1.0062,1.0042,1.0065,1.0061,1.0068,1.0066,1.0084,1.006,1.0076,1.0079,1.0083,1.0089,0.9967,1.0086,1.0085,1.0085,1.0085,1.0084,0,1.0124,1.0118,1.0132,1.0136,1.0148,1.0117,1.0118,1.013,1.015,1.0149,1.016,1.018,1.0195,1.018,1.0191,1.0208,1.0193,1.0212,1.0209,1.0208,1.011,1.0099,1.0224,1.0224,1.0224,1.0224,1.0224,1.0224,1.019,1.0226,1.0212,1.0246,1.024,1.0261,1.0264,1.0266,1.0265,1.0289,1.0301,1.0291,1.0284,1.0295,1.0307,1.0302,1.0308,1.0331,1.0321,1.0229,1.0215,1.0202,1.0191,1.0333,1.0334,1.0417,1.0418,1.0419]}]]